Wind_Speed
25 26 28 29 31 32 32 31 31 30 30 30 30 30 29 28 27 27 26 25 23 21 21 20 19 19 17 17 16 15 15 15 14 14 13 12 12 12 11 11 11 11 11 11 11 11 11 11 11
26 26 27 29 30 32 32 32 31 32 31 31 32 32 31 30 28 28 27 26 25 23 22 21 21 20 19 18 17 17 16 16 16 15 14 14 13 13 13 12 12 12 12 12 13 13 13 13 13
25 25 26 29 29 30 31 32 33 33 31 32 33 33 33 32 30 29 28 27 26 24 24 24 23 22 21 20 19 19 18 17 17 16 16 15 15 15 14 14 14 13 13 13 14 14 15 15 15
23 24 26 28 29 29 29 30 32 34 32 33 34 35 34 33 31 30 29 28 27 25 25 25 24 23 22 21 21 20 19 19 18 17 16 16 16 15 15 15 15 15 15 15 15 16 16 16 16
24 24 25 27 28 28 29 30 30 32 33 33 35 36 35 33 32 31 30 29 28 26 26 25 25 24 23 22 22 21 20 20 19 18 17 17 17 16 16 16 16 15 15 16 16 17 17 18 18
23 25 25 26 26 27 28 29 30 30 32 33 35 36 35 34 33 33 32 30 29 28 27 27 26 25 24 23 23 22 22 21 20 19 19 18 18 18 18 17 17 16 16 16 17 17 18 18 19
22 24 24 24 25 26 28 29 30 30 32 33 34 36 36 36 35 35 34 32 31 29 29 28 27 26 26 25 24 24 23 23 22 21 21 20 19 19 19 18 18 18 18 18 18 18 18 19 19
21 23 23 24 25 26 27 29 28 31 31 33 34 35 34 36 36 36 35 33 32 31 30 30 29 28 27 27 26 25 25 24 24 23 22 21 21 20 20 20 20 20 20 19 19 20 20 20 20
21 22 22 22 23 24 26 27 27 29 31 32 33 34 33 34 35 35 34 33 33 33 32 31 31 30 29 28 28 27 27 26 25 25 24 23 23 22 22 22 21 21 22 21 21 21 21 21 22
20 20 20 21 22 23 24 26 25 26 28 30 31 33 32 33 34 34 34 33 33 33 33 33 32 31 30 30 29 29 28 28 27 26 26 25 25 24 24 23 23 23 23 23 23 23 23 23 23
20 20 19 20 22 24 24 25 25 25 27 29 30 31 32 33 33 34 34 34 34 34 34 34 33 33 32 31 31 31 30 29 28 28 28 27 27 27 26 25 25 25 25 26 25 25 25 24 24
19 19 20 20 22 23 23 25 25 24 24 28 29 30 31 32 33 33 34 35 35 34 33 34 34 33 32 32 32 32 32 31 31 30 29 29 28 28 28 27 27 27 28 28 28 27 27 26 26
18 19 20 20 20 21 23 24 25 25 24 25 27 30 30 30 32 33 34 34 34 34 34 33 33 33 33 33 33 33 33 33 32 31 31 30 29 29 29 29 29 29 29 30 29 29 28 28 27
18 18 19 20 20 20 20 21 23 24 23 24 26 28 29 30 31 33 35 34 33 34 34 34 34 33 32 33 33 34 33 32 32 32 31 31 31 31 31 31 31 31 31 31 30 30 30 29 29
17 18 18 19 19 20 20 20 21 21 22 23 25 26 27 29 31 32 33 33 33 33 34 35 35 35 34 34 34 34 33 33 33 33 33 32 33 33 33 32 33 33 33 33 33 32 31 31 31
16 17 17 17 19 20 20 19 19 20 20 21 22 24 26 29 30 32 32 32 32 33 34 35 35 36 36 35 35 35 34 34 34 34 34 34 34 34 35 34 35 35 34 34 34 33 32 32 32
15 16 16 15 17 18 20 19 18 19 19 20 21 23 25 27 28 30 31 31 32 32 33 36 36 36 37 36 36 36 36 35 35 35 35 36 36 36 36 36 35 35 35 34 35 35 34 34 34
15 15 15 15 15 16 17 18 18 18 19 21 21 23 24 26 27 30 30 30 30 32 32 34 36 37 37 37 37 37 37 37 36 36 36 36 38 37 37 36 35 35 36 36 36 36 35 35 35
15 15 15 14 15 16 16 17 17 18 19 20 22 23 25 26 27 28 30 30 30 31 32 33 35 35 36 37 37 37 37 37 36 37 37 37 37 38 38 38 36 36 36 37 36 37 36 36 36
15 15 14 14 16 17 17 16 17 18 20 21 22 23 25 26 27 29 30 29 31 31 31 32 34 35 35 36 36 37 36 36 37 37 38 38 38 38 38 38 37 37 38 36 36 36 37 37 37
16 15 15 16 17 17 18 17 17 18 19 21 21 21 23 25 26 28 29 29 30 30 30 31 32 34 35 36 36 36 36 37 37 38 39 39 38 39 40 39 39 39 39 38 37 37 38 38 38
17 17 17 17 18 17 18 17 16 17 18 19 21 21 22 24 25 27 28 29 30 30 31 31 31 32 34 35 36 36 36 37 38 39 39 40 39 39 40 40 40 40 40 39 38 38 39 39 40
18 17 17 18 18 17 17 18 15 16 18 19 20 21 22 23 24 25 27 28 29 30 31 31 31 32 33 34 35 35 37 38 38 38 37 39 40 40 40 40 41 40 40 40 39 39 40 40 40
18 18 18 18 18 18 17 18 16 15 17 18 20 20 21 23 23 24 26 28 28 29 30 31 31 33 34 34 35 35 36 37 37 38 38 39 40 40 40 41 41 41 41 41 41 41 41 41 42
18 18 19 19 18 18 18 18 18 16 17 18 19 20 21 22 23 25 25 27 28 28 29 30 31 32 33 34 35 36 36 37 37 38 39 39 39 40 41 42 42 43 43 42 43 43 43 43 43
19 19 19 19 19 19 18 18 17 17 17 18 19 19 20 22 23 23 25 26 27 28 28 29 30 31 32 34 35 35 37 37 38 39 39 40 39 40 41 42 42 43 43 43 44 45 45 45 45
21 20 20 21 21 20 19 19 18 17 18 19 20 20 21 22 23 23 24 25 26 28 29 30 31 31 32 33 34 35 36 37 37 38 39 39 39 39 40 41 42 42 43 44 45 45 46 46 46
22 21 22 22 23 22 21 20 20 19 19 20 21 22 23 24 24 25 26 26 27 28 29 30 31 32 33 34 35 36 37 37 38 38 38 38 39 40 41 41 42 43 43 44 45 46 46 47 47
23 23 23 23 24 24 23 21 21 21 21 21 22 24 25 25 26 27 27 27 28 29 30 31 32 33 33 34 35 36 37 37 38 39 39 40 40 41 41 41 42 43 44 44 45 46 47 47 48
25 25 24 25 25 26 26 24 22 22 23 23 23 25 26 27 28 29 29 29 30 30 31 32 33 34 34 35 35 36 37 38 39 40 41 41 42 43 43 44 43 44 44 45 46 46 47 48 49
Wind_Direction
256 253 251 250 247 245 244 244 244 243 243 242 242 241 241 240 241 240 242 242 239 237 236 236 237 237 238 241 241 242 244 245 246 247 248 248 249 248 248 251 253 256 258 260 263 267 270 272 275
257 254 252 251 249 247 245 245 245 243 243 242 241 240 240 239 240 240 240 243 241 239 238 237 239 240 240 242 243 244 246 248 249 249 250 250 250 251 252 253 256 258 261 264 266 269 271 272 274
258 255 254 252 250 249 247 245 245 243 243 243 241 240 239 239 240 239 238 241 242 240 238 238 240 242 242 243 244 245 247 249 250 251 251 251 252 254 255 256 257 260 263 266 269 270 271 272 274
259 258 257 256 253 250 248 246 245 244 242 242 242 240 238 239 237 238 238 240 241 241 239 238 240 241 243 244 245 246 247 249 250 251 251 252 254 257 258 259 260 263 266 269 271 272 272 273 273
261 261 261 259 254 250 248 247 246 244 242 241 242 241 238 237 236 236 237 239 240 241 239 238 240 241 242 243 244 246 247 248 249 250 251 253 255 257 260 260 262 264 268 271 273 274 274 274 273
264 264 264 262 256 251 249 248 246 245 244 242 242 241 239 236 236 237 236 237 239 240 238 238 239 240 241 242 243 245 246 247 248 250 252 255 257 258 259 261 262 265 268 271 274 275 276 274 273
271 270 267 264 258 253 249 248 249 246 244 244 243 242 241 238 237 237 237 237 238 238 237 237 238 240 241 243 244 246 246 247 249 250 253 256 257 258 259 260 263 266 269 271 274 276 276 275 274
273 272 270 266 261 255 251 250 251 246 245 245 243 242 241 239 238 236 236 235 235 235 236 236 237 239 241 243 244 246 247 248 249 251 253 255 257 259 259 261 264 267 270 271 274 275 276 276 275
272 272 269 266 263 257 253 252 252 250 248 245 244 244 240 238 236 234 234 234 234 235 235 237 238 240 241 243 244 245 247 248 250 252 253 255 257 259 260 262 264 267 270 272 273 274 276 276 276
272 272 269 267 264 261 254 252 254 253 249 244 242 243 239 236 235 233 233 233 234 234 235 237 239 242 242 242 244 245 247 248 249 251 252 254 256 258 260 262 264 267 269 271 272 273 274 275 276
276 273 272 266 265 263 256 252 253 254 248 243 242 242 240 236 234 233 233 233 233 234 236 238 239 241 242 242 243 244 246 248 249 250 252 253 256 258 261 263 264 267 269 270 273 274 273 274 274
277 275 271 267 266 264 259 255 253 255 252 246 243 243 241 236 235 234 234 233 232 234 237 237 240 241 240 242 243 244 246 248 249 251 253 254 256 259 262 264 266 267 269 270 272 273 274 273 274
286 281 274 272 270 267 261 258 257 257 255 250 246 244 241 239 236 235 234 232 232 234 236 238 240 241 240 242 243 244 247 249 251 253 253 254 256 259 263 265 266 267 269 271 271 273 273 273 274
289 286 277 272 269 267 265 263 261 260 259 251 246 245 242 237 236 235 234 232 233 236 237 238 239 242 241 241 244 246 248 251 253 254 255 256 258 260 262 265 267 268 270 271 271 273 272 274 273
292 288 279 272 269 268 267 266 265 261 259 254 248 244 241 238 236 234 234 236 237 238 238 239 240 241 244 244 245 247 249 252 254 256 257 258 259 260 263 265 267 269 271 271 270 272 272 273 273
291 287 283 278 273 271 267 265 266 265 259 254 249 245 243 240 239 238 238 240 239 239 238 238 240 242 244 245 245 247 250 252 253 255 257 259 260 260 262 265 267 269 271 270 270 270 271 272 273
296 291 288 284 278 276 271 270 268 265 258 255 253 249 245 241 240 239 239 239 240 239 239 239 241 244 244 245 247 249 251 252 254 255 257 259 260 261 262 265 267 268 269 269 269 269 270 271 272
300 297 294 288 281 276 276 276 274 267 262 260 257 253 246 243 243 241 239 239 240 240 242 242 243 245 244 245 247 249 251 252 253 255 256 259 260 261 263 265 267 268 269 269 270 269 269 271 272
303 301 299 294 286 280 280 277 276 269 263 261 258 254 248 246 245 243 241 241 242 243 244 244 246 245 245 247 248 249 251 252 254 255 256 260 260 262 264 266 267 268 269 271 270 269 269 270 272
306 303 301 293 287 283 283 280 275 272 264 260 259 257 253 251 247 246 244 244 244 244 245 245 247 247 248 247 248 251 251 253 254 255 257 260 262 263 266 266 267 268 269 271 272 269 269 270 271
309 305 301 296 289 285 283 280 276 272 266 260 259 258 256 253 250 247 245 247 246 246 248 248 248 249 248 248 250 252 253 254 255 256 259 261 263 264 265 265 267 268 269 270 271 271 271 272 272
309 305 302 300 297 293 290 286 279 277 267 263 261 259 257 257 254 252 251 250 248 248 250 251 250 250 250 249 251 253 254 255 256 258 261 262 264 266 265 266 266 267 268 269 271 272 272 273 273
309 305 303 302 300 298 295 291 286 280 270 263 263 260 258 258 256 254 253 251 250 251 251 252 252 252 253 253 254 256 258 258 259 261 264 265 266 267 267 267 267 268 268 269 271 272 273 274 274
309 307 304 302 303 302 300 297 292 285 275 266 263 261 260 259 256 254 253 251 251 253 253 254 255 256 256 257 258 259 260 261 262 264 266 268 268 269 269 269 269 269 269 269 270 272 273 274 274
306 306 305 303 303 302 301 299 295 290 283 275 270 265 263 261 258 256 255 254 254 255 255 254 257 257 257 259 260 261 263 264 265 266 267 268 270 271 271 272 271 271 271 271 271 272 274 275 275
303 303 304 303 302 301 299 299 296 292 285 280 275 270 267 265 262 258 255 256 256 256 258 258 259 261 261 261 262 264 265 267 268 268 268 269 271 272 272 272 272 273 273 273 274 274 275 276 276
299 299 301 300 299 298 297 298 296 290 284 279 276 272 270 268 265 262 260 259 260 260 261 261 262 264 265 266 266 266 269 269 270 270 271 271 273 273 273 272 273 273 273 274 274 274 275 276 276
296 296 297 297 297 295 295 296 297 295 287 282 277 273 270 269 267 265 264 264 263 263 264 265 265 266 267 268 269 270 271 271 271 273 273 272 274 275 275 274 275 274 274 275 276 275 275 276 277
293 292 292 291 291 292 292 292 294 293 290 285 281 276 273 271 269 268 266 266 266 265 265 266 267 267 268 269 270 271 272 273 273 275 275 275 276 276 276 276 276 276 276 276 276 276 276 276 277
291 291 289 289 289 289 290 290 290 289 288 286 282 277 274 273 271 270 269 268 266 266 266 267 267 268 269 269 271 272 273 274 275 275 276 277 277 277 277 277 277 277 277 277 277 277 276 277 278
Height
5800 5801 5803 5805 5807 5809 5811 5815 5817 5820 5822 5825 5827 5829 5831 5833 5836 5839 5840 5841 5844 5847 5848 5850 5852 5853 5855 5856 5857 5858 5859 5860 5861 5861 5862 5862 5863 5863 5864 5864 5865 5865 5865 5866 5866 5866 5866 5866 5866
5793 5795 5797 5798 5799 5801 5806 5808 5810 5813 5816 5818 5820 5823 5825 5828 5830 5831 5834 5837 5840 5843 5845 5847 5848 5850 5852 5853 5854 5856 5857 5857 5858 5859 5860 5860 5861 5861 5862 5862 5862 5863 5863 5863 5864 5864 5864 5864 5864
5786 5788 5790 5791 5792 5795 5799 5801 5802 5804 5808 5811 5814 5817 5819 5822 5824 5826 5830 5832 5836 5839 5841 5843 5845 5846 5848 5850 5851 5852 5853 5854 5855 5856 5857 5857 5858 5858 5859 5859 5860 5860 5861 5861 5861 5861 5861 5861 5861
5780 5781 5783 5784 5786 5789 5792 5794 5795 5797 5800 5803 5806 5810 5812 5816 5819 5821 5825 5828 5831 5834 5836 5839 5841 5842 5844 5846 5848 5849 5850 5851 5852 5853 5854 5854 5855 5856 5856 5856 5857 5857 5858 5858 5858 5858 5858 5858 5858
5773 5775 5776 5777 5780 5783 5784 5786 5788 5790 5792 5796 5798 5802 5806 5809 5812 5815 5819 5823 5826 5829 5832 5834 5836 5838 5840 5842 5843 5845 5846 5847 5849 5850 5851 5851 5852 5852 5853 5853 5854 5854 5854 5855 5855 5855 5855 5855 5855
5768 5769 5770 5771 5774 5776 5777 5779 5781 5782 5785 5788 5791 5794 5798 5802 5806 5809 5814 5817 5820 5824 5826 5829 5831 5833 5835 5837 5839 5841 5842 5844 5845 5846 5847 5848 5848 5849 5849 5850 5850 5851 5851 5851 5851 5851 5851 5851 5851
5764 5764 5764 5765 5767 5769 5770 5771 5773 5774 5778 5780 5783 5786 5790 5795 5799 5803 5807 5811 5815 5818 5821 5824 5826 5828 5830 5832 5834 5836 5838 5839 5841 5842 5843 5844 5844 5845 5846 5846 5847 5847 5847 5847 5847 5847 5847 5847 5846
5758 5759 5759 5759 5760 5762 5763 5764 5766 5767 5770 5773 5776 5779 5784 5788 5792 5796 5800 5805 5808 5812 5815 5818 5821 5823 5825 5827 5829 5831 5833 5835 5836 5837 5838 5840 5840 5841 5842 5842 5843 5843 5843 5843 5843 5843 5843 5842 5842
5753 5754 5754 5754 5754 5756 5757 5758 5760 5760 5763 5766 5769 5772 5777 5781 5784 5788 5793 5798 5802 5805 5809 5812 5815 5817 5820 5822 5824 5826 5828 5830 5831 5832 5834 5835 5836 5837 5837 5838 5839 5839 5839 5839 5839 5839 5838 5838 5838
5749 5749 5750 5749 5749 5750 5751 5752 5753 5754 5756 5759 5762 5765 5769 5773 5776 5781 5786 5791 5795 5799 5802 5806 5808 5811 5814 5816 5818 5820 5822 5824 5826 5827 5829 5830 5831 5832 5833 5833 5834 5834 5834 5834 5834 5834 5834 5833 5833
5744 5744 5745 5744 5744 5744 5745 5745 5746 5747 5750 5752 5755 5758 5761 5765 5770 5774 5778 5783 5787 5792 5795 5799 5802 5804 5807 5810 5812 5814 5816 5818 5820 5821 5823 5824 5826 5827 5827 5828 5829 5829 5829 5829 5829 5829 5829 5828 5828
5740 5740 5740 5740 5739 5739 5740 5740 5741 5742 5744 5746 5749 5751 5755 5759 5763 5766 5771 5775 5780 5784 5788 5792 5795 5796 5799 5803 5805 5808 5810 5812 5814 5815 5817 5819 5820 5821 5822 5823 5823 5823 5823 5823 5824 5823 5823 5823 5823
5737 5736 5735 5735 5735 5735 5735 5736 5736 5737 5738 5740 5742 5744 5748 5752 5756 5760 5764 5768 5772 5777 5781 5784 5787 5789 5792 5795 5798 5801 5803 5805 5807 5809 5811 5812 5814 5815 5816 5817 5817 5817 5817 5817 5818 5818 5817 5817 5817
5733 5732 5730 5730 5730 5730 5731 5731 5731 5732 5733 5734 5736 5738 5741 5745 5748 5753 5756 5761 5765 5769 5773 5776 5780 5782 5785 5788 5791 5794 5796 5798 5800 5802 5804 5806 5807 5808 5809 5810 5810 5811 5811 5811 5811 5811 5811 5811 5810
5728 5727 5727 5726 5726 5726 5726 5726 5726 5727 5727 5729 5731 5733 5735 5739 5742 5745 5749 5754 5758 5762 5765 5769 5772 5775 5777 5780 5783 5786 5789 5791 5793 5795 5797 5798 5800 5801 5802 5803 5803 5804 5804 5804 5804 5804 5804 5804 5804
5725 5724 5723 5723 5722 5721 5723 5722 5722 5722 5723 5724 5726 5728 5731 5733 5736 5740 5743 5747 5750 5754 5758 5761 5764 5768 5770 5772 5775 5778 5781 5784 5786 5788 5789 5791 5792 5793 5794 5795 5796 5796 5796 5796 5796 5797 5797 5797 5796
5722 5720 5719 5719 5718 5717 5718 5718 5719 5719 5719 5720 5722 5724 5727 5729 5731 5734 5737 5740 5743 5747 5750 5753 5756 5759 5761 5764 5767 5770 5773 5776 5778 5780 5781 5783 5784 5785 5786 5787 5788 5788 5788 5788 5788 5789 5789 5789 5789
5719 5717 5716 5716 5715 5714 5714 5715 5715 5716 5716 5717 5718 5720 5722 5725 5727 5729 5731 5734 5737 5740 5743 5745 5749 5751 5754 5757 5760 5763 5765 5767 5770 5772 5773 5774 5776 5777 5778 5779 5779 5780 5780 5780 5779 5780 5780 5781 5781
5716 5715 5714 5713 5712 5712 5711 5712 5712 5712 5713 5714 5715 5716 5718 5720 5722 5724 5726 5728 5731 5734 5736 5739 5741 5744 5746 5749 5753 5755 5757 5759 5762 5764 5766 5766 5767 5769 5769 5770 5771 5771 5772 5771 5771 5771 5771 5771 5772
5714 5712 5711 5711 5709 5708 5708 5709 5708 5708 5709 5710 5711 5712 5714 5715 5718 5719 5721 5724 5726 5728 5730 5732 5734 5737 5739 5742 5745 5748 5749 5751 5754 5755 5757 5758 5759 5760 5761 5761 5762 5762 5763 5762 5762 5762 5762 5762 5762
5712 5711 5709 5708 5707 5705 5705 5705 5705 5705 5705 5706 5707 5708 5709 5711 5713 5714 5716 5718 5720 5722 5724 5726 5728 5731 5733 5735 5738 5740 5742 5743 5746 5748 5749 5750 5750 5751 5752 5753 5753 5754 5754 5753 5753 5753 5754 5753 5753
5710 5708 5707 5705 5704 5703 5702 5701 5702 5701 5701 5702 5703 5704 5705 5707 5708 5709 5711 5713 5715 5717 5719 5721 5723 5725 5726 5729 5731 5732 5734 5736 5737 5739 5740 5741 5741 5742 5743 5744 5744 5744 5745 5744 5744 5744 5744 5744 5743
5708 5706 5704 5702 5700 5700 5699 5698 5699 5698 5697 5698 5699 5700 5701 5703 5703 5705 5706 5708 5710 5712 5714 5715 5717 5719 5720 5722 5723 5725 5726 5727 5729 5730 5731 5732 5733 5733 5734 5734 5734 5735 5735 5735 5735 5735 5734 5734 5733
5705 5704 5702 5700 5698 5698 5697 5695 5695 5695 5694 5695 5695 5696 5697 5698 5698 5700 5701 5703 5705 5706 5708 5709 5711 5713 5714 5715 5716 5717 5718 5719 5720 5721 5722 5723 5723 5724 5724 5724 5724 5724 5725 5725 5725 5724 5724 5723 5723
5704 5702 5700 5697 5695 5695 5694 5692 5692 5692 5691 5691 5691 5691 5692 5693 5693 5695 5696 5698 5699 5701 5702 5703 5705 5706 5707 5707 5709 5709 5710 5711 5712 5712 5713 5714 5714 5714 5714 5714 5714 5714 5714 5714 5714 5714 5713 5712 5712
5700 5699 5698 5695 5693 5692 5691 5689 5690 5688 5687 5687 5687 5687 5687 5688 5688 5690 5691 5692 5693 5695 5696 5697 5698 5699 5699 5700 5701 5701 5702 5702 5703 5703 5704 5704 5704 5704 5704 5704 5704 5704 5704 5703 5703 5703 5702 5701 5700
5697 5695 5694 5692 5689 5688 5687 5686 5686 5685 5684 5683 5683 5683 5683 5683 5683 5684 5685 5687 5688 5688 5689 5690 5691 5691 5692 5692 5693 5693 5693 5694 5693 5693 5693 5694 5694 5694 5693 5693 5693 5693 5693 5692 5692 5691 5691 5690 5688
5693 5691 5690 5687 5685 5683 5683 5682 5681 5680 5679 5679 5678 5678 5678 5678 5678 5679 5679 5680 5681 5682 5682 5683 5683 5684 5684 5684 5684 5685 5685 5685 5684 5684 5684 5684 5683 5683 5683 5683 5682 5682 5681 5681 5680 5679 5678 5677 5676
5688 5687 5684 5682 5681 5679 5677 5680 5676 5675 5674 5673 5673 5672 5672 5673 5673 5673 5673 5674 5674 5675 5675 5676 5676 5676 5676 5676 5676 5676 5676 5675 5675 5675 5674 5674 5673 5673 5673 5672 5671 5671 5670 5669 5668 5667 5666 5664 5663
5682 5681 5679 5678 5675 5673 5672 5675 5671 5669 5667 5667 5667 5666 5666 5666 5666 5666 5666 5666 5667 5667 5667 5668 5667 5667 5667 5667 5667 5666 5666 5666 5665 5665 5664 5663 5663 5662 5661 5661 5660 5659 5658 5657 5655 5654 5653 5652 5650